This is the latest recevied weather packets stored in our database for station/object KD0ISH. If no packets are shown the sender has not sent any weather packets the latest 10 day(s).
| Time | Temp. | Humidity | Pressure | Rain* | Wind** | Luminosity | Snow |
|---|---|---|---|---|---|---|---|
| 1788147288 | 85° F | 58% | 761.8 mmHg | 0 in | - | 0 W/m² | - |
| 1788146983 | 85° F | 57% | 761.8 mmHg | 0 in | - | 0 W/m² | - |
| 1788146678 | 85° F | 57% | 761.7 mmHg | 0 in | - | 0 W/m² | - |
| 1788146373 | 84° F | 58% | 761.8 mmHg | 0 in | - | 0 W/m² | - |
| 1788146073 | 84° F | 59% | 761.8 mmHg | 0 in | - | 0 W/m² | - |
| 1788145772 | 84° F | 59% | 761.8 mmHg | 0 in | - | 0 W/m² | - |
| 1788145472 | 84° F | 59% | 761.8 mmHg | 0 in | - | 0 W/m² | - |
| 1788145170 | 85° F | 59% | 761.7 mmHg | 0 in | - | 0 W/m² | - |
| 1788144869 | 85° F | 59% | 761.6 mmHg | 0 in | - | 0 W/m² | - |
| 1788144565 | 84° F | 60% | 761.5 mmHg | 0 in | - | 0 W/m² | - |
| 1788144264 | 84° F | 61% | 761.5 mmHg | 0 in | - | 0 W/m² | - |
| 1788143959 | 84° F | 62% | 761.5 mmHg | 0 in | - | 0 W/m² | - |
| 1788143658 | 84° F | 61% | 761.6 mmHg | 0 in | - | 0 W/m² | - |
| 1788143353 | 84° F | 61% | 761.5 mmHg | 0 in | - | 0 W/m² | - |
| 1788143052 | 84° F | 60% | 761.4 mmHg | 0 in | - | 0 W/m² | - |
| 1788142747 | 84° F | 60% | 761.4 mmHg | 0 in | - | 0 W/m² | - |
| 1788142446 | 85° F | 59% | 761.4 mmHg | 0 in | - | 0 W/m² | - |
| 1788142142 | 85° F | 58% | 761.3 mmHg | 0 in | - | 0 W/m² | - |
| 1788141842 | 86° F | 57% | 761.2 mmHg | 0 in | - | 0 W/m² | - |
| 1788141536 | 86° F | 55% | 761.2 mmHg | 0 in | - | 0 W/m² | - |
| 1788141232 | 87° F | 54% | 761.3 mmHg | 0 in | - | 0 W/m² | - |
| 1788140927 | 86° F | 53% | 761.1 mmHg | 0 in | - | 0 W/m² | - |
| 1788140621 | 86° F | 55% | 761 mmHg | 0 in | - | 0 W/m² | - |
| 1788140318 | 87° F | 55% | 761.1 mmHg | 0 in | - | 0 W/m² | - |
| 1788140012 | 88° F | 49% | 761 mmHg | 0 in | - | 0 W/m² | - |
* Rain latest hour (hover to see other rain measurements)
** Current wind speed in m/s (hover to see current wind gust speed)